| time (UTC) | temp C | wind direction | speed KPH | gust KPH | rain 1hr cm | rain 24hr cm | rain mn cm | humidity % | barometer mb |
| 20260502231803 | 9 | 206 | 1.6 | 6.4 | 0.05 | 0.18 | 0.05 | 91 | 1004.9 |
| 20260502230903 | 9 | 274 | 3.2 | 6.4 | 0.03 | 0.15 | 0.03 | 90 | 1004.8 |
| 20260502230005 | 10 | 292 | 3.2 | 3.2 | 0.03 | 0.15 | 0.03 | 88 | 1004.9 |
| 20260502225403 | 10 | 304 | 3.2 | 3.2 | 0.03 | 0.15 | 0.03 | 85 | 1004.9 |
| 20260502224503 | 10 | 315 | 3.2 | 3.2 | 0.00 | 0.13 | 0.00 | 85 | 1004.9 |
| 20260502223603 | 10 | 315 | 1.6 | 3.2 | 0.00 | 0.13 | 0.00 | 85 | 1004.7 |
| 20260502222703 | 10 | 315 | 0.0 | 3.2 | 0.00 | 0.13 | 0.00 | 86 | 1004.6 |
| 20260502221803 | 10 | 315 | 0.0 | 3.2 | 0.00 | 0.13 | 0.00 | 86 | 1004.5 |
| 20260502220925 | 10 | 315 | 0.0 | 3.2 | 0.00 | 0.13 | 0.00 | 87 | 1004.7 |
| 20260502220003 | 10 | 315 | 0.0 | 3.2 | 0.00 | 0.13 | 0.00 | 85 | 1004.7 |
| 20260502215405 | 10 | 315 | 1.6 | 3.2 | 0.00 | 0.13 | 0.13 | 86 | 1004.7 |
| 20260502214504 | 10 | 315 | 3.2 | 3.2 | 0.00 | 0.13 | 0.13 | 83 | 1004.7 |
| 20260502213603 | 10 | 315 | 0.0 | 3.2 | 0.03 | 0.13 | 0.13 | 80 | 1004.5 |
| 20260502212703 | 10 | 315 | 3.2 | 6.4 | 0.03 | 0.13 | 0.13 | 80 | 1004.3 |
| 20260502211803 | 10 | 315 | 3.2 | 6.4 | 0.03 | 0.13 | 0.13 | 80 | 1004.5 |
| 20260502210924 | 11 | 320 | 3.2 | 11.3 | 0.03 | 0.13 | 0.13 | 80 | 1004.4 |
| 20260502210004 | 11 | 313 | 6.4 | 11.3 | 0.03 | 0.13 | 0.13 | 79 | 1004.4 |
| 20260502205403 | 11 | 310 | 8.0 | 14.5 | 0.03 | 0.13 | 0.13 | 77 | 1004.7 |
| 20260502204503 | 11 | 319 | 8.0 | 14.5 | 0.03 | 0.13 | 0.13 | 76 | 1004.9 |
| 20260502203603 | 11 | 324 | 4.8 | 14.5 | 0.00 | 0.10 | 0.10 | 74 | 1004.6 |
| 20260502202705 | 12 | 322 | 4.8 | 12.9 | 0.00 | 0.10 | 0.10 | 73 | 1004.4 |
| 20260502201803 | 12 | 335 | 4.8 | 12.9 | 0.00 | 0.10 | 0.10 | 71 | 1004.2 |
| 20260502200903 | 12 | 333 | 6.4 | 17.7 | 0.00 | 0.10 | 0.10 | 69 | 1004.2 |
| 20260502200005 | 13 | 323 | 4.8 | 12.9 | 0.03 | 0.10 | 0.10 | 67 | 1004.3 |
| 20260502195403 | 13 | 325 | 6.4 | 14.5 | 0.03 | 0.10 | 0.10 | 64 | 1004.3 |
| 20260502194505 | 13 | 327 | 8.0 | 12.9 | 0.05 | 0.10 | 0.10 | 69 | 1004.2 |
| 20260502193603 | 13 | 325 | 4.8 | 17.7 | 0.10 | 0.10 | 0.10 | 72 | 1004.3 |
| 20260502192724 | 13 | 320 | 9.7 | 17.7 | 0.10 | 0.10 | 0.10 | 70 | 1004.6 |
| 20260502191805 | 12 | 304 | 6.4 | 14.5 | 0.10 | 0.10 | 0.10 | 74 | 1004.3 |
| 20260502190905 | 13 | 277 | 6.4 | 12.9 | 0.10 | 0.10 | 0.10 | 73 | 1004.3 |
| 20260502190004 | 13 | 274 | 6.4 | 12.9 | 0.05 | 0.05 | 0.05 | 69 | 1004.3 |
| 20260502185424 | 13 | 273 | 6.4 | 12.9 | 0.05 | 0.05 | 0.05 | 67 | 1004.6 |
| 20260502184503 | 13 | 289 | 8.0 | 17.7 | 0.03 | 0.03 | 0.03 | 68 | 1004.7 |
| 20260502183624 | 14 | 284 | 6.4 | 11.3 | 0.00 | 0.00 | 0.00 | 63 | 1004.6 |
| 20260502182703 | 15 | 291 | 4.8 | 14.5 | 0.00 | 0.00 | 0.00 | 56 | 1004.2 |
| 20260502181803 | 16 | 303 | 6.4 | 14.5 | 0.00 | 0.00 | 0.00 | 50 | 1003.8 |
| 20260502180905 | 16 | 308 | 6.4 | 14.5 | 0.00 | 0.00 | 0.00 | 49 | 1003.5 |
| 20260502163603 | 20 | 257 | 6.4 | 24.1 | 0.00 | 0.00 | 0.00 | 41 | 1002.8 |
| 20260502162726 | 20 | 241 | 9.7 | 20.9 | 0.00 | 0.00 | 0.00 | 41 | 1002.9 |
| 20260502161824 | 20 | 254 | 12.9 | 25.7 | 0.00 | 0.00 | 0.00 | 42 | 1003.1 |
| 20260502160905 | 20 | 242 | 16.1 | 29.0 | 0.00 | 0.00 | 0.00 | 41 | 1003.2 |
| 20260502151824 | 21 | 209 | 14.5 | 29.0 | 0.00 | 0.00 | 0.00 | 36 | 1003.5 |
| 20260502150903 | 21 | 237 | 17.7 | 33.8 | 0.00 | 0.00 | 0.00 | 36 | 1003.5 |
| 20260502123603 | 21 | 266 | 12.9 | 32.2 | 0.00 | 0.00 | 0.00 | 30 | 1004.7 |
| 20260502122703 | 21 | 256 | 12.9 | 40.2 | 0.00 | 0.00 | 0.00 | 31 | 1004.9 |
| 20260502121803 | 21 | 228 | 12.9 | 32.2 | 0.00 | 0.00 | 0.00 | 32 | 1004.9 |
| 20260502120903 | 21 | 239 | 14.5 | 29.0 | 0.00 | 0.00 | 0.00 | 31 | 1004.9 |
| 20260502115403 | 21 | 242 | 12.9 | 32.2 | 0.00 | 0.00 | 0.00 | 32 | 1005.2 |
| 20260502114503 | 20 | 249 | 12.9 | 32.2 | 0.00 | 0.00 | 0.00 | 31 | 1005.5 |
| 20260502113603 | 21 | 241 | 12.9 | 25.7 | 0.00 | 0.00 | 0.00 | 33 | 1005.5 |
| 20260502112703 | 20 | 252 | 11.3 | 33.8 | 0.00 | 0.00 | 0.00 | 32 | 1005.7 |
| 20260502111803 | 20 | 263 | 22.5 | 33.8 | 0.00 | 0.00 | 0.00 | 33 | 1005.8 |
| 20260502110903 | 20 | 258 | 17.7 | 35.4 | 0.00 | 0.00 | 0.00 | 33 | 1005.9 |
| 20260502110003 | 20 | 254 | 12.9 | 35.4 | 0.00 | 0.00 | 0.00 | 33 | 1005.8 |
| 20260502105403 | 20 | 262 | 17.7 | 33.8 | 0.00 | 0.00 | 0.00 | 33 | 1005.8 |
| 20260502104503 | 19 | 241 | 20.9 | 38.6 | 0.00 | 0.00 | 0.00 | 33 | 1006.0 |
| 20260502103604 | 20 | 237 | 12.9 | 32.2 | 0.00 | 0.00 | 0.00 | 34 | 1006.1 |
| 20260502102703 | 19 | 241 | 16.1 | 32.2 | 0.00 | 0.00 | 0.00 | 33 | 1006.2 |
| 20260502101824 | 19 | 233 | 12.9 | 24.1 | 0.00 | 0.00 | 0.00 | 33 | 1006.2 |
| 20260502100903 | 19 | 242 | 12.9 | 33.8 | 0.00 | 0.00 | 0.00 | 33 | 1006.4 |
| 20260502090903 | 18 | 248 | 9.7 | 37.0 | 0.00 | 0.00 | 0.00 | 31 | 1007.2 |
| 20260502070903 | 14 | 216 | 6.4 | 22.5 | 0.00 | 0.00 | 0.00 | 44 | 1008.1 |
| 20260502070003 | 14 | 230 | 12.9 | 22.5 | 0.00 | 0.00 | 0.00 | 44 | 1008.4 |
| 20260502065403 | 13 | 230 | 8.0 | 22.5 | 0.00 | 0.00 | 0.00 | 45 | 1008.3 |
| 20260502064505 | 13 | 248 | 12.9 | 20.9 | 0.00 | 0.00 | 0.00 | 46 | 1008.4 |
| 20260502063603 | 13 | 226 | 8.0 | 22.5 | 0.00 | 0.00 | 0.00 | 46 | 1008.3 |
| 20260502062704 | 13 | 221 | 12.9 | 20.9 | 0.00 | 0.00 | 0.00 | 47 | 1008.4 |
| 20260502060905 | 13 | 226 | 8.0 | 14.5 | 0.00 | 0.00 | 0.00 | 49 | 1008.5 |
| 20260502060024 | 12 | 230 | 9.7 | 17.7 | 0.00 | 0.00 | 0.00 | 49 | 1008.4 |
| 20260502055403 | 12 | 230 | 6.4 | 17.7 | 0.00 | 0.00 | 0.00 | 50 | 1008.5 |
| 20260502054503 | 12 | 240 | 6.4 | 12.9 | 0.00 | 0.00 | 0.00 | 51 | 1008.7 |
| 20260502053624 | 12 | 228 | 6.4 | 11.3 | 0.00 | 0.00 | 0.00 | 52 | 1008.7 |
| 20260502052703 | 12 | 237 | 4.8 | 6.4 | 0.00 | 0.00 | 0.00 | 54 | 1008.6 |
| 20260502051804 | 11 | 239 | 4.8 | 9.7 | 0.00 | 0.00 | 0.00 | 55 | 1008.7 |
| 20260502050903 | 11 | 251 | 4.8 | 9.7 | 0.00 | 0.00 | 0.00 | 55 | 1008.5 |
| 20260502050026 | 11 | 238 | 3.2 | 12.9 | 0.00 | 0.00 | 0.00 | 55 | 1008.8 |
| 20260502045425 | 11 | 245 | 3.2 | 6.4 | 0.00 | 0.00 | 0.00 | 55 | 1009.0 |
| 20260502044505 | 11 | 232 | 3.2 | 6.4 | 0.00 | 0.00 | 0.00 | 56 | 1008.6 |
| 20260502043606 | 11 | 240 | 3.2 | 6.4 | 0.00 | 0.00 | 0.00 | 56 | 1008.8 |
| 20260502042726 | 11 | 232 | 1.6 | 6.4 | 0.00 | 0.00 | 0.00 | 57 | 1008.9 |
| 20260502041804 | 10 | 241 | 3.2 | 12.9 | 0.00 | 0.00 | 0.00 | 58 | 1008.7 |
| 20260502040903 | 10 | 247 | 6.4 | 9.7 | 0.00 | 0.00 | 0.00 | 58 | 1008.7 |
| 20260502040003 | 10 | 232 | 4.8 | 11.3 | 0.00 | 0.00 | 0.00 | 58 | 1008.9 |
| 20260502035403 | 10 | 240 | 6.4 | 12.9 | 0.00 | 0.00 | 0.00 | 59 | 1009.1 |
| 20260502034503 | 10 | 252 | 8.0 | 17.7 | 0.00 | 0.00 | 0.00 | 59 | 1009.0 |
| 20260502033605 | 10 | 249 | 6.4 | 12.9 | 0.00 | 0.00 | 0.00 | 59 | 1009.2 |
| 20260502032703 | 10 | 232 | 9.7 | 14.5 | 0.00 | 0.00 | 0.00 | 59 | 1009.3 |
| 20260502031824 | 10 | 230 | 6.4 | 14.5 | 0.00 | 0.00 | 0.00 | 59 | 1009.3 |
| 20260502030903 | 10 | 251 | 3.2 | 14.5 | 0.00 | 0.00 | 0.00 | 59 | 1009.3 |
| 20260502030026 | 10 | 238 | 6.4 | 17.7 | 0.00 | 0.00 | 0.00 | 58 | 1009.5 |
| 20260502025403 | 10 | 234 | 6.4 | 14.5 | 0.00 | 0.00 | 0.00 | 58 | 1009.6 |
| 20260502024503 | 10 | 242 | 8.0 | 17.7 | 0.00 | 0.00 | 0.00 | 58 | 1009.7 |
| 20260502023605 | 10 | 240 | 9.7 | 17.7 | 0.00 | 0.00 | 0.00 | 57 | 1009.7 |
| 20260502022703 | 10 | 242 | 6.4 | 14.5 | 0.00 | 0.00 | 0.00 | 57 | 1009.8 |
| 20260502021824 | 10 | 233 | 6.4 | 11.3 | 0.00 | 0.00 | 0.00 | 56 | 1009.7 |
| 20260502020903 | 11 | 242 | 3.2 | 12.9 | 0.00 | 0.00 | 0.00 | 56 | 1009.9 |
| 20260502020024 | 11 | 243 | 6.4 | 17.7 | 0.00 | 0.00 | 0.00 | 55 | 1010.1 |
| 20260502015404 | 11 | 235 | 6.4 | 17.7 | 0.00 | 0.00 | 0.00 | 54 | 1010.2 |
| 20260502014524 | 11 | 227 | 8.0 | 14.5 | 0.00 | 0.00 | 0.00 | 53 | 1010.2 |
| 20260502013604 | 11 | 247 | 3.2 | 9.7 | 0.00 | 0.00 | 0.00 | 54 | 1010.2 |
| 20260502012703 | 11 | 258 | 1.6 | 6.4 | 0.00 | 0.00 | 0.00 | 54 | 1010.3 |
| 20260502011805 | 11 | 282 | 3.2 | 6.4 | 0.00 | 0.00 | 0.00 | 53 | 1010.3 |
| 20260502010924 | 11 | 250 | 3.2 | 14.5 | 0.00 | 0.00 | 0.00 | 53 | 1010.4 |
| 20260502010003 | 12 | 268 | 4.8 | 12.9 | 0.00 | 0.00 | 0.00 | 52 | 1010.5 |
| 20260502005404 | 12 | 237 | 3.2 | 14.5 | 0.00 | 0.00 | 0.00 | 51 | 1010.5 |
| 20260502004503 | 12 | 246 | 6.4 | 11.3 | 0.00 | 0.00 | 0.00 | 52 | 1010.6 |
| 20260502003605 | 12 | 252 | 4.8 | 9.7 | 0.00 | 0.00 | 0.00 | 51 | 1010.7 |
| 20260502002703 | 12 | 245 | 3.2 | 14.5 | 0.00 | 0.00 | 0.00 | 51 | 1010.7 |
| 20260502001825 | 12 | 236 | 6.4 | 14.5 | 0.00 | 0.00 | 0.00 | 50 | 1011.0 |
| 20260502000904 | 12 | 255 | 4.8 | 12.9 | 0.00 | 0.00 | 0.00 | 51 | 1011.0 |
| 20260502000005 | 12 | 262 | 4.8 | 12.9 | 0.00 | 0.00 | 0.00 | 50 | 1011.1 |
| 20260501235424 | 12 | 257 | 4.8 | 12.9 | 0.00 | 0.00 | 0.00 | 50 | 1010.7 |
| 20260501234524 | 13 | 292 | 6.4 | 11.3 | 0.00 | 0.00 | 0.00 | 50 | 1011.1 |
| 20260501233603 | 13 | 294 | 3.2 | 14.5 | 0.00 | 0.00 | 0.00 | 50 | 1011.2 |
| 20260501232703 | 13 | 288 | 6.4 | 11.3 | 0.00 | 0.00 | 0.00 | 50 | 1011.1 |